STARLINK-3565, 51886

Orbit data source: Space-Track

STARLINK-3565, 51886 is a payload satellite owned by SpaceX/Seattle (US) in LEO that was launched on Thu, 03 Mar 2022 UTC via an FALCON 9 launch vehicle from the Air Force Eastern Test Range (AFETR). Payload-class satellites include a variety of spacecraft equipped with specific instruments for various scientific and technological missions. These include communications satellites like Starlink; space stations such as the ISS; scientific satellites like the Hubble; Earth observation satellites from companies like Planet Labs, Umbra, and HawkEye 360; GPS; miniature CubeSats for education and research; and military/defense satellites.

Loading next visibility...
Identifier
51886, 2022-022AL
Orbit
LEO
Country
Flag of USUS
Related business
Manufacturer
SpaceX/Seattle
Mission
Operational Commercial Communications
Bus & Motor
STARLINK, Unknown motor
Mass
297 kg wet, ~275 kg dry
Launch date (UTC)
2022-03-03 (4 years ago)
Launch vehicle
FALCON 9
Launch site
Air Force Eastern Test Range (AFETR)
Object type
Payload
Rocket body
Debris
Shape & HBR
Box + 1 Pan, 10.1 m
Radar Cross Section
13.562 m², Large (>1 m²)

Expand to show TLE details & history
Last TLE update: 2 days ago

TLE from 2 days ago
0 STARLINK-3565
1 51886U 22022AL  26171.43976708  .00011280  00000-0  71747-3 0  9998
2 51886  53.1729 257.7444 0000751  45.8464 314.2590 15.09256740238763
Epoch: 2026-06-20T10:33Z
TLE epoch observation values (Epoch: 2026-06-20T10:33:15.875Z)
Latitude
0.00001°
Longitude
-169.2261°
Altitude
539 km
Speed
7.594 km/s
True Right ascension
17h 10m 58s
True Declination
0° 00' 00"
Sunlit
Object was in full shadow at epoch
Visualization orbit readout
Latitude
Unknown
Longitude
Unknown
Altitude
Unknown
Speed
Unknown
Apparent Right ascension
Unknown
Apparent Declination
Unknown
Sunlit
N/A
Visualization observer readout
Local Sidereal Time
21:32:25
Azimuth
Unknown
Elevation
Unknown
Doppler factor
Unknown
Orbital elements
Apogee altitude
539.241 km
Perigee altitude
538.203 km
Semi-major axis
6,916.859 km
Eccentricity
0.00008
Inclination
53.1729°
RAAN
257.7444°
Arg. of periapsis
45.8464°
True anomaly
314.25284°
Mean anomaly
314.259°
Eccentric anomaly
314.25592°
Mean motion
3.77294 °/min
Orbital period
95.42 mins
BSTAR
0.00071747
Loading maneuver chart data...
Computing Atmospheric mass density...
Loading historical data...
Loading historical data...
Loading historical data...
Loading historical data...
Loading historical data...
Loading historical data...
Loading historical data...

Documentation

Showing up to 5 results
|